Regional Weather Roundup
Issued by NWS

Home | Current Version | Previous Version | Graphics & Text | Print | Product List | Glossary On
Versions: 1 2 3 4 5 6 7 8 9 10 11 12 13 14 15 16 17 18 19 20 21 22 23 24 25 26 27 28 29 30 31 32 33 34 35 36 37 38 39 40 41 42 43 44 45 46 47 48 49 50
000
ASUS43 KFSD 081910
RWRSD

WEATHER ROUNDUP FOR SOUTH DAKOTA
NATIONAL WEATHER SERVICE SIOUX FALLS SD
100 PM CST MON FEB 08 2016

NOTE: "FAIR" INDICATES FEW OR NO CLOUDS BELOW 12,000 FEET WITH NO
SIGNIFICANT WEATHER AND/OR OBSTRUCTIONS TO VISIBILITY.


SDZ001>005-009-010-012>017-082000-
NORTHWEST AND NORTH CENTRAL SOUTH DAKOTA

CITY           SKY/WX    TMP DP  RH WIND       PRES   REMARKS
BUFFALO          N/A     36  10  34 NW23G31   30.24F
FAITH            N/A     37  11  34 NW26G39   30.26F
MOBRIDGE       MOSUNNY   36  18  48 N23G33    30.20F
$$

SDZ012>016-024>037-041>051-057-063-072>074-082000-
SOUTHWEST AND SOUTH CENTRAL SOUTH DAKOTA

CITY           SKY/WX    TMP DP  RH WIND       PRES   REMARKS
RAPID CTY ARPT CLOUDY    40   4  22 NW29G37   30.29F
PIERRE         MOSUNNY   34  17  50 NW29G36   30.25F WCI  20
CUSTER         CLOUDY    35  11  36 N8G17     30.25F WCI  29
ELLSWORTH AFB  CLOUDY    40   7  25 NW26G36   30.28F
PHILIP         CLOUDY    37  15  40 NW24G31   30.31F
PINE RIDGE     CLOUDY    36   8  31 NW16G23   30.33F
WINNER         FAIR      34  17  50 NW32      30.25F WCI  20
$$

SDZ004>011-016>023-039-040-082000-
NORTHEAST SOUTH DAKOTA

CITY           SKY/WX    TMP DP  RH WIND       PRES   REMARKS
ABERDEEN       SUNNY     32  12  43 N24G36    30.18F WCI  19
WATERTOWN      LGT SNOW  20  11  68 NW28G38   30.09F WCI   2
BROOKINGS      LGT SNOW  19  13  77 N31G38    30.06S WCI   0
SISSETON         N/A     19  13  77 N26G36    30.12F WCI   1
$$

SDZ017-020-022-023-036>040-048>070-082000-
SOUTHEAST SOUTH DAKOTA

CITY           SKY/WX    TMP DP  RH WIND       PRES   REMARKS
SIOUX FALLS    FLURRIES  23  14  68 NW24G31   30.09F WCI   7
HURON          SUNNY     30  16  56 N24G37    30.16F WCI  16
CHAMBERLAIN    SUNNY     33  19  56 NW23G35   30.22F WCI  21
MITCHELL       SUNNY     31  17  56 NW36G41   30.18F WCI  15
YANKTON        MOSUNNY  N/A N/A N/A NW31G40   30.13F
$$

ABBREVIATIONS USED IN REMARKS
   TC - TEMPERATURE IN CELSIUS
  WCI - WIND CHILL INDEX
   HX - HEAT INDEX
  VSB - VISIBILITY





USA.gov is the U.S. government's official web portal to all federal, state and local government web resources and services.